Weather History for Shepherd Bay, NU

Change the Weather History Date:

Thursday, October 18, 2012

  Actual Average Record
Temperature  
Mean Temperature 20 °F -  
Max Temperature 26 °F - - ()
Min Temperature 15 °F - - ()
Degree Days  
Heating Degree Days 44    
Moisture  
Dew Point -    
Average Humidity    
Maximum Humidity    
Minimum Humidity    
Precipitation  
Precipitation 0.00 in - - ()
Sea Level Pressure  
Sea Level Pressure 30.00 in    
Wind  
Wind Speed 14 mph ()    
Max Wind Speed 22 mph    
Max Gust Speed 23 mph    
Visibility 6.2 miles    
Events Snow    
T = Trace of Precipitation, MM = Missing Value Source: Averaged Metar Reports

Daily Weather History Graph

Daily Weather History Graph

Search for Another Location

Airport:

Trip Planner

Search our weather history database for the weather conditions in past years. The results will help you decide how hot, cold, wet, or windy it might be!

Date:

Astronomy

Oct. 18, 2012 Rise Set
Actual Time 8:35 AM CDT 5:20 PM CDT
Civil Twilight 7:34 AM CDT 6:21 PM CDT
Nautical Twilight 6:27 AM CDT 7:27 PM CDT
Astronomical Twilight 5:19 AM CDT 8:35 PM CDT
Moon 3:34 PM CDT (10/18) 4:38 PM CDT (10/18)
Length of Visible Light 10h 46m
Length of Day
8h 45m
Waxing Crescent, 14% of the Moon is Illuminated
Oct 18
Waxing Crescent
Oct 21
First Quarter
Oct 29
Full
Nov 6
Last Quarter
Nov 13
New

Hourly Weather History & Observations

Time (CDT) Temp. Windchill Dew Point Humidity Pressure Visibility Wind Dir Wind Speed Gust Speed Precip Events Conditions
12:00 AM 26.6 °F 14.7 °F - N/A% 29.92 in 9.0 mi West 15.0 mph - N/A   Overcast
1:00 AM 26 °F - - % 29.93 in 9 mi WNW 15.0 mph - -   Overcast
1:00 AM 26.6 °F 14.3 °F - N/A% 29.93 in 9.0 mi WNW 16.1 mph - N/A   Overcast
1:54 AM 26.6 °F 13.4 °F - N/A% 29.91 in 7.0 mi WNW 18.4 mph - N/A   Overcast
1:57 AM 26.6 °F 14.3 °F - N/A% 29.91 in 4.0 mi WNW 16.1 mph 21.9 mph N/A   Overcast
2:00 AM 26.6 °F 13.1 °F - N/A% 29.93 in 3.5 mi WNW 19.6 mph - N/A   Overcast
2:03 AM 26.6 °F 13.4 °F - N/A% 29.91 in 2.8 mi WNW 18.4 mph - N/A   Overcast
2:10 AM 26.6 °F 12.7 °F - N/A% 29.91 in 3.0 mi WNW 20.7 mph - N/A   Overcast
2:14 AM 26.6 °F 14.3 °F - N/A% 29.91 in 9.0 mi WNW 16.1 mph 23.0 mph N/A   Mostly Cloudy
2:21 AM 26.6 °F 13.8 °F - N/A% 29.91 in 2.8 mi West 17.3 mph - N/A   Overcast
2:23 AM 26.6 °F 14.3 °F - N/A% 29.91 in 2.5 mi West 16.1 mph - N/A   Overcast
2:24 AM 24.8 °F 11.9 °F - N/A% 29.91 in 2.5 mi West 16.1 mph - N/A   Overcast
2:30 AM 24.8 °F 12.9 °F - N/A% 29.91 in 3.0 mi West 13.8 mph - N/A   Overcast
2:34 AM 26.6 °F 13.4 °F - N/A% 29.91 in 3.0 mi WNW 18.4 mph - N/A   Overcast
2:36 AM 26.6 °F 13.8 °F - N/A% 29.91 in 3.0 mi WNW 17.3 mph - N/A   Overcast
2:38 AM 26.6 °F 13.8 °F - N/A% 29.91 in 2.5 mi WNW 17.3 mph - N/A   Overcast
3:00 AM 26.6 °F 13.4 °F - N/A% 29.94 in 2.0 mi WNW 18.4 mph - N/A   Overcast
3:09 AM 26.6 °F 13.1 °F - N/A% 29.91 in 1.4 mi WNW 19.6 mph - N/A   Overcast
3:25 AM 26.6 °F 12.4 °F - N/A% 29.92 in 2.4 mi WNW 21.9 mph - N/A   Overcast
3:44 AM 26.6 °F 12.4 °F - N/A% 29.92 in 4.0 mi WNW 21.9 mph - N/A   Overcast
3:51 AM 24.8 °F 10.3 °F - N/A% 29.92 in 3.5 mi WNW 20.7 mph - N/A   Overcast
3:55 AM 24.8 °F 10.7 °F - N/A% 29.92 in 6.0 mi WNW 19.6 mph - N/A   Overcast
4:00 AM 25 °F - - % 29.94 in 9 mi WNW 19.6 mph - -   Overcast
4:00 AM 24.8 °F 10.3 °F - N/A% 29.94 in 9.0 mi WNW 20.7 mph - N/A   Overcast
4:03 AM 24.8 °F 11.1 °F - N/A% 29.92 in 9.0 mi WNW 18.4 mph - N/A   Overcast
4:11 AM 24.8 °F 10.3 °F - N/A% 29.92 in 9.0 mi WNW 20.7 mph - N/A   Mostly Cloudy
4:13 AM 24.8 °F 10.7 °F - N/A% 29.92 in 9.0 mi WNW 19.6 mph - N/A   Overcast
4:26 AM 24.8 °F 10.7 °F - N/A% 29.93 in 9.0 mi WNW 19.6 mph - N/A   Overcast
4:28 AM 24.8 °F 10.3 °F - N/A% 29.93 in 9.0 mi WNW 20.7 mph - N/A   Overcast
4:38 AM 24.8 °F 11.1 °F - N/A% 29.93 in 9.0 mi WNW 18.4 mph - N/A   Overcast
4:40 AM 24.8 °F 11.5 °F - N/A% 29.93 in 9.0 mi WNW 17.3 mph - N/A   Overcast
5:00 AM 24.8 °F 11.5 °F - N/A% 29.95 in 9.0 mi WNW 17.3 mph - N/A   Overcast
5:05 AM 24.8 °F 12.4 °F - N/A% 29.93 in 9.0 mi WNW 15.0 mph - N/A   Overcast
5:12 AM 24.8 °F 11.5 °F - N/A% 29.93 in 9.0 mi WNW 17.3 mph - N/A   Overcast
5:14 AM 24.8 °F 11.9 °F - N/A% 29.94 in 9.0 mi WNW 16.1 mph - N/A   Overcast
5:25 AM 24.8 °F 11.5 °F - N/A% 29.94 in 9.0 mi WNW 17.3 mph - N/A   Overcast
5:36 AM 24.8 °F 11.1 °F - N/A% 29.94 in 9.0 mi WNW 18.4 mph - N/A   Overcast
5:41 AM 24.8 °F 12.4 °F - N/A% 29.94 in 9.0 mi WNW 15.0 mph - N/A   Overcast
5:50 AM 24.8 °F 12.4 °F - N/A% 29.94 in 9.0 mi WNW 15.0 mph - N/A   Overcast
5:58 AM 24.8 °F 12.9 °F - N/A% 29.94 in 3.0 mi WNW 13.8 mph - N/A   Clear
6:00 AM 24.8 °F 11.9 °F - N/A% 29.96 in 2.1 mi WNW 16.1 mph - N/A   Overcast
6:08 AM 24.8 °F 11.9 °F - N/A% 29.94 in 1.0 mi WNW 16.1 mph - N/A   Overcast
6:11 AM 24.8 °F 12.4 °F - N/A% 29.94 in 0.6 mi WNW 15.0 mph - N/A   Clear
6:12 AM 24.8 °F 12.4 °F - N/A% 29.94 in 0.6 mi WNW 15.0 mph - N/A   Clear
6:31 AM 24.8 °F 11.9 °F - N/A% 29.95 in 1.1 mi WNW 16.1 mph - N/A   Clear
6:38 AM 24.8 °F 11.9 °F - N/A% 29.95 in 3.5 mi WNW 16.1 mph - N/A   Overcast
6:43 AM 24.8 °F 11.9 °F - N/A% 29.95 in 2.6 mi WNW 16.1 mph - N/A   Overcast
7:00 AM 24 °F - - % 29.97 in 2 mi WNW 16.1 mph - -  
7:00 AM 24.8 °F 11.5 °F - N/A% 29.97 in 2.1 mi WNW 17.3 mph - N/A   Clear
7:12 AM 24.8 °F 11.9 °F - N/A% 29.95 in 4.0 mi WNW 16.1 mph - N/A   Overcast
7:17 AM 24.8 °F 12.9 °F - N/A% 29.95 in 3.5 mi WNW 13.8 mph - N/A   Overcast
7:19 AM 24.8 °F 12.4 °F - N/A% 29.95 in 3.0 mi WNW 15.0 mph - N/A   Overcast
7:23 AM 24.8 °F 12.9 °F - N/A% 29.95 in 1.6 mi WNW 13.8 mph - N/A Snow Light Snow
7:25 AM 24.8 °F 12.4 °F - N/A% 29.95 in 1.5 mi WNW 15.0 mph - N/A Snow Light Snow
7:26 AM 24.8 °F 12.4 °F - N/A% 29.95 in 1.4 mi WNW 15.0 mph - N/A Snow Light Snow
7:35 AM 24.8 °F 11.5 °F - N/A% 29.96 in 1.0 mi WNW 17.3 mph - N/A Snow Light Snow
7:39 AM 24.8 °F 11.9 °F - N/A% 29.96 in 0.8 mi WNW 16.1 mph - N/A   Overcast
7:56 AM 23.0 °F 9.6 °F - N/A% 29.96 in 1.4 mi WNW 16.1 mph - N/A   Overcast
7:59 AM 23.0 °F 9.6 °F - N/A% 29.96 in 1.5 mi WNW 16.1 mph - N/A   Mostly Cloudy
8:00 AM 23.0 °F 9.6 °F - N/A% 29.98 in 1.5 mi WNW 16.1 mph - N/A   Mostly Cloudy
8:18 AM 23.0 °F 8.7 °F - N/A% 29.96 in 1.6 mi WNW 18.4 mph - N/A   Overcast
8:19 AM 23.0 °F 8.7 °F - N/A% 29.96 in 1.6 mi WNW 18.4 mph - N/A   Mostly Cloudy
8:21 AM 23.0 °F 9.6 °F - N/A% 29.96 in 2.0 mi WNW 16.1 mph - N/A   Overcast
8:49 AM 23.0 °F 8.3 °F - N/A% 29.96 in 4.0 mi WNW 19.6 mph - N/A   Overcast
9:00 AM 23.0 °F 9.2 °F - N/A% 29.99 in 5.0 mi WNW 17.3 mph - N/A   Overcast
9:18 AM 23.0 °F 9.6 °F - N/A% 29.97 in 4.0 mi WNW 16.1 mph - N/A   Overcast
9:23 AM 23.0 °F 8.7 °F - N/A% 29.97 in 2.5 mi WNW 18.4 mph - N/A   Overcast
9:59 AM 21.2 °F 7.8 °F - N/A% 29.98 in 9.0 mi WNW 15.0 mph - N/A   Mostly Cloudy
10:00 AM 20 °F - - % 30.00 in 9 mi WNW 13.8 mph - -  
10:00 AM 21.2 °F 7.8 °F - N/A% 30.00 in 9.0 mi West 15.0 mph - N/A   Scattered Clouds
10:04 AM 21.2 °F 8.3 °F - N/A% 29.98 in 9.0 mi West 13.8 mph - N/A   Scattered Clouds
10:11 AM 21.2 °F 7.8 °F - N/A% 29.98 in 9.0 mi West 15.0 mph - N/A   Mostly Cloudy
10:24 AM 21.2 °F 9.5 °F - N/A% 29.98 in 9.0 mi West 11.5 mph - N/A   Overcast
10:32 AM 21.2 °F 10.1 °F - N/A% 29.99 in 3.0 mi West 10.4 mph - N/A   Clear
10:46 AM 21.2 °F 8.3 °F - N/A% 29.99 in 9.0 mi WNW 13.8 mph - N/A   Overcast
11:00 AM 21.2 °F 8.3 °F - N/A% 30.01 in 9.0 mi West 13.8 mph - N/A   Overcast
11:38 AM 21.2 °F 8.9 °F - N/A% 30.00 in 9.0 mi West 12.7 mph - N/A   Overcast
11:40 AM 21.2 °F 8.3 °F - N/A% 30.00 in 9.0 mi West 13.8 mph - N/A   Overcast
12:00 PM 21.2 °F 8.3 °F - N/A% 30.02 in 9.0 mi West 13.8 mph - N/A   Overcast
12:52 PM 21.2 °F 9.5 °F - N/A% 30.01 in 9.0 mi West 11.5 mph - N/A   Clear
12:56 PM 21.2 °F 8.9 °F - N/A% 30.01 in 9.0 mi West 12.7 mph - N/A   Overcast
1:00 PM 21 °F - - % 30.03 in 9 mi West 12.7 mph - -   Overcast
1:00 PM 21.2 °F 9.5 °F - N/A% 30.03 in 9.0 mi West 11.5 mph - N/A   Overcast
1:02 PM 21.2 °F 9.5 °F - N/A% 30.01 in 9.0 mi West 11.5 mph - N/A   Overcast
1:14 PM 21.2 °F 8.9 °F - N/A% 30.01 in 9.0 mi West 12.7 mph - N/A   Clear
1:15 PM 21.2 °F 8.9 °F - N/A% 30.01 in 9.0 mi West 12.7 mph - N/A   Overcast
1:30 PM 21.2 °F 8.9 °F - N/A% 30.02 in 9.0 mi WNW 12.7 mph - N/A   Scattered Clouds
1:36 PM 21.2 °F 9.5 °F - N/A% 30.02 in 9.0 mi WNW 11.5 mph - N/A   Mostly Cloudy
1:37 PM 21.2 °F 9.5 °F - N/A% 30.02 in 9.0 mi WNW 11.5 mph - N/A   Mostly Cloudy
1:42 PM 21.2 °F 9.5 °F - N/A% 30.02 in 9.0 mi WNW 11.5 mph - N/A   Mostly Cloudy
1:49 PM 21.2 °F 9.5 °F - N/A% 30.02 in 9.0 mi West 11.5 mph - N/A   Overcast
1:52 PM 21.2 °F 9.5 °F - N/A% 30.02 in 9.0 mi WNW 11.5 mph - N/A   Overcast
1:58 PM 21.2 °F 8.9 °F - N/A% 30.02 in 9.0 mi WNW 12.7 mph - N/A   Unknown
1:59 PM 21.2 °F 9.5 °F - N/A% 30.02 in 9.0 mi West 11.5 mph - N/A   Unknown
2:04 PM 21.2 °F 10.9 °F - N/A% 30.02 in 9.0 mi West 9.2 mph - N/A   Unknown
2:33 PM 21.2 °F 9.5 °F - N/A% 30.03 in 3.0 mi West 11.5 mph - N/A   Unknown
2:50 PM 21.2 °F 10.9 °F - N/A% 30.03 in 1.5 mi West 9.2 mph - N/A   Unknown
2:51 PM 21.2 °F 10.9 °F - N/A% 30.03 in 1.4 mi West 9.2 mph - N/A   Unknown
2:54 PM 21.2 °F 10.1 °F - N/A% 30.03 in 1.1 mi West 10.4 mph - N/A   Unknown
3:00 PM 21.2 °F 10.1 °F - N/A% 30.05 in 1.0 mi West 10.4 mph - N/A   Unknown
3:07 PM 21.2 °F 10.9 °F - N/A% 30.04 in 1.0 mi West 9.2 mph - N/A   Unknown
3:10 PM 21.2 °F 11.7 °F - N/A% 30.04 in 0.6 mi West 8.1 mph - N/A   Unknown
3:19 PM 21.2 °F 10.9 °F - N/A% 30.04 in 1.0 mi West 9.2 mph - N/A   Unknown
3:59 PM 19.4 °F 7.9 °F - N/A% 30.05 in 1.6 mi West 10.4 mph - N/A   Unknown
4:00 PM 20 °F - - % 30.07 in 2 mi West 10.4 mph - -  
4:00 PM 19.4 °F 8.6 °F - N/A% 30.07 in 1.8 mi West 9.2 mph - N/A   Unknown
4:13 PM 17.6 °F 5.7 °F - N/A% 30.05 in 9.0 mi West 10.4 mph - N/A   Unknown
4:20 PM 17.6 °F 6.4 °F - N/A% 30.05 in 2.8 mi West 9.2 mph - N/A   Unknown
4:45 PM 17.6 °F 5.7 °F - N/A% 30.05 in 9.0 mi West 10.4 mph - N/A   Unknown
4:58 PM 17.6 °F 6.4 °F - N/A% 30.05 in 9.0 mi West 9.2 mph - N/A   Unknown
4:59 PM 17.6 °F 6.4 °F - N/A% 30.05 in 9.0 mi West 9.2 mph - N/A   Unknown
5:00 PM 17.6 °F 7.3 °F - N/A% 30.07 in 9.0 mi West 8.1 mph - N/A   Unknown
5:10 PM 17.6 °F 9.3 °F - N/A% 30.06 in 9.0 mi West 5.8 mph - N/A   Unknown
5:12 PM 17.6 °F 9.3 °F - N/A% 30.06 in 9.0 mi West 5.8 mph - N/A   Unknown
5:15 PM 17.6 °F 8.2 °F - N/A% 30.06 in 9.0 mi West 6.9 mph - N/A   Unknown
5:54 PM 17.6 °F 5.0 °F - N/A% 30.06 in 9.0 mi West 11.5 mph - N/A   Unknown
5:56 PM 17.6 °F 5.7 °F - N/A% 30.06 in 9.0 mi West 10.4 mph - N/A   Unknown
6:00 PM 15.8 °F 4.2 °F - N/A% 30.08 in 9.0 mi West 9.2 mph - N/A   Unknown
6:17 PM 15.8 °F 4.2 °F - N/A% 30.06 in 9.0 mi West 9.2 mph - N/A   Unknown
6:20 PM 15.8 °F 3.4 °F - N/A% 30.06 in 9.0 mi West 10.4 mph - N/A   Unknown
6:25 PM 15.8 °F 3.4 °F - N/A% 30.06 in 8.0 mi West 10.4 mph - N/A   Unknown
6:27 PM 15.8 °F 3.4 °F - N/A% 30.06 in 6.0 mi West 10.4 mph - N/A   Unknown
6:35 PM 17.6 °F 6.4 °F - N/A% 30.07 in 2.8 mi West 9.2 mph - N/A   Unknown
7:00 PM 18 °F - - % 30.09 in 3 mi West 9.2 mph - -  
7:00 PM 17.6 °F 6.4 °F - N/A% 30.09 in 3.0 mi West 9.2 mph - N/A   Unknown
7:09 PM 17.6 °F 6.4 °F - N/A% 30.07 in 6.0 mi West 9.2 mph - N/A   Unknown
7:48 PM 19.4 °F 12.8 °F - N/A% 30.07 in 9.0 mi West 4.6 mph - N/A   Unknown
7:49 PM 19.4 °F 12.8 °F - N/A% 30.07 in 9.0 mi West 4.6 mph - N/A   Unknown
7:52 PM 19.4 °F 14.3 °F - N/A% 30.07 in 9.0 mi West 3.5 mph - N/A   Unknown
8:00 PM 19.4 °F 12.8 °F - N/A% 30.09 in 9.0 mi WSW 4.6 mph - N/A   Unknown
8:07 PM 19.4 °F 11.5 °F - N/A% 30.07 in 9.0 mi West 5.8 mph - N/A   Unknown
8:15 PM 19.4 °F 7.9 °F - N/A% 30.07 in 9.0 mi West 10.4 mph - N/A   Unknown
8:20 PM 19.4 °F 10.4 °F - N/A% 30.07 in 9.0 mi West 6.9 mph - N/A   Unknown
8:30 PM 19.4 °F 9.5 °F - N/A% 30.07 in 9.0 mi West 8.1 mph - N/A   Unknown
8:44 PM 19.4 °F 8.6 °F - N/A% 30.07 in 9.0 mi West 9.2 mph - N/A   Unknown
8:45 PM 19.4 °F 9.5 °F - N/A% 30.07 in 9.0 mi West 8.1 mph - N/A   Unknown
9:00 PM 19.4 °F 12.8 °F - N/A% 30.09 in 9.0 mi West 4.6 mph - N/A   Unknown
9:05 PM 19.4 °F 12.8 °F - N/A% 30.07 in 9.0 mi West 4.6 mph - N/A   Unknown
9:16 PM 17.6 °F 9.3 °F - N/A% 30.07 in 9.0 mi West 5.8 mph - N/A   Unknown
9:28 PM 17.6 °F 12.3 °F - N/A% 30.07 in 9.0 mi West 3.5 mph - N/A   Unknown
9:39 PM 17.6 °F 10.7 °F - N/A% 30.07 in 9.0 mi WSW 4.6 mph - N/A   Unknown
9:42 PM 17.6 °F 9.3 °F - N/A% 30.07 in 9.0 mi WSW 5.8 mph - N/A   Unknown
9:57 PM 17.6 °F 10.7 °F - N/A% 30.06 in 9.0 mi West 4.6 mph - N/A   Unknown
10:00 PM 18 °F - - % 30.08 in 9 mi West 5.8 mph - -  
10:00 PM 17.6 °F 9.3 °F - N/A% 30.08 in 9.0 mi West 5.8 mph - N/A   Unknown
10:04 PM 17.6 °F 9.3 °F - N/A% 30.06 in 9.0 mi West 5.8 mph - N/A   Unknown
10:10 PM 17.6 °F 8.2 °F - N/A% 30.06 in 9.0 mi West 6.9 mph - N/A   Unknown
11:00 PM 19.4 °F 7.2 °F - N/A% 30.09 in 9.0 mi West 11.5 mph - N/A   Unknown
11:27 PM 19.4 °F 6.0 °F - N/A% 30.07 in 9.0 mi WNW 13.8 mph - N/A   Unknown